TOM40HL BIAR-EGCC

Flight info

Callsign TOM40HL
Flight time 3h 10m
Altitude 35000
Route JARRI1D JARRI DCT MATIK/N0455F350 DCT BESGA DCT ELBUS UL612 LAKEY
Aircraft B738/M-SDE2E3FGHIRWXY/LB1

Departure

Time 2026-04-21 23:39
Airport Akureyri International Airport (BIAR)

Arrival

Time 2026-04-22 02:49
Airport Manchester Airport (EGCC)
Time Latitude Longitude Altitude Speed Heading
2026-04-21 23:34 65.65474 -18.07491 16 ft 0 kts 12°
2026-04-21 23:35 65.65476 -18.07485 16 ft 1 kts 41°
2026-04-21 23:35 65.65479 -18.07389 16 ft 13 kts 84°
2026-04-21 23:35 65.65440 -18.07167 14 ft 18 kts 171°
2026-04-21 23:35 65.65317 -18.07139 15 ft 17 kts 175°
2026-04-21 23:36 65.65199 -18.07113 15 ft 17 kts 175°
2026-04-21 23:36 65.65084 -18.07098 18 ft 16 kts 177°
2026-04-21 23:36 65.64965 -18.07083 19 ft 18 kts 177°
2026-04-21 23:36 65.64840 -18.07049 17 ft 18 kts 173°
2026-04-21 23:37 65.64720 -18.07025 15 ft 17 kts 175°
2026-04-21 23:37 65.64599 -18.06987 14 ft 18 kts 159°
2026-04-21 23:37 65.64491 -18.06954 18 ft 13 kts 218°
2026-04-21 23:37 65.64488 -18.07000 16 ft 1 kts 336°
2026-04-21 23:38 65.64520 -18.06990 17 ft 9 kts 359°
2026-04-21 23:38 65.64791 -18.07032 16 ft 85 kts 356°
2026-04-21 23:38 65.65681 -18.07203 21 ft 169 kts 355°
2026-04-21 23:38 65.67043 -18.07411 313 ft 217 kts
2026-04-21 23:39 65.68585 -18.07488 1297 ft 224 kts 359°
2026-04-21 23:39 65.70148 -18.07522 2241 ft 228 kts 358°
2026-04-21 23:39 65.71759 -18.07545 2964 ft 230 kts 358°
2026-04-21 23:39 65.73322 -18.07623 3909 ft 225 kts 356°
2026-04-21 23:40 65.74951 -18.06981 4188 ft 257 kts 27°
2026-04-21 23:40 65.76186 -18.03771 4851 ft 270 kts 66°
2026-04-21 23:40 65.76429 -17.99249 5687 ft 277 kts 101°
2026-04-21 23:40 65.75630 -17.95074 6483 ft 280 kts 129°
2026-04-21 23:41 65.74336 -17.91487 7295 ft 285 kts 133°
2026-04-21 23:41 65.72973 -17.87956 8115 ft 288 kts 134°
2026-04-21 23:41 65.71591 -17.84448 8994 ft 289 kts 134°
2026-04-21 23:41 65.70187 -17.80885 9850 ft 293 kts 134°
2026-04-21 23:42 65.68773 -17.77271 10635 ft 297 kts 134°
2026-04-21 23:42 65.67326 -17.73553 11099 ft 314 kts 134°
2026-04-21 23:42 65.65768 -17.69531 11274 ft 339 kts 134°
2026-04-21 23:42 65.64103 -17.65219 11451 ft 362 kts 133°
2026-04-21 23:43 65.62327 -17.60610 11911 ft 373 kts 133°
2026-04-21 23:43 65.60551 -17.55991 12610 ft 378 kts 133°
2026-04-21 23:43 65.58751 -17.51313 13341 ft 382 kts 133°
2026-04-21 23:43 65.56929 -17.46585 14014 ft 387 kts 133°
2026-04-21 23:44 65.55087 -17.41813 14728 ft 388 kts 133°
2026-04-21 23:44 65.53273 -17.37121 15513 ft 388 kts 133°
2026-04-21 23:44 65.51423 -17.32342 16137 ft 392 kts 133°
2026-04-21 23:44 65.49557 -17.27535 16815 ft 394 kts 133°
2026-04-21 23:45 65.47678 -17.22703 17479 ft 396 kts 133°
2026-04-21 23:45 65.43879 -17.12973 18761 ft 402 kts 133°
2026-04-21 23:45 65.41957 -17.08066 19376 ft 403 kts 133°
2026-04-21 23:46 65.40035 -17.03169 20002 ft 403 kts 132°
2026-04-21 23:46 65.38110 -16.98275 20579 ft 405 kts 132°
2026-04-21 23:46 65.36163 -16.93342 21039 ft 410 kts 132°
2026-04-21 23:46 65.34195 -16.88363 21556 ft 412 kts 132°
2026-04-21 23:47 65.32246 -16.83446 22112 ft 413 kts 132°
2026-04-21 23:47 65.30266 -16.78461 22718 ft 413 kts 131°
2026-04-21 23:47 65.28280 -16.73473 23267 ft 414 kts 131°
2026-04-21 23:47 65.26290 -16.68485 23777 ft 417 kts 131°
2026-04-21 23:48 65.24281 -16.63463 24250 ft 419 kts 131°
2026-04-21 23:48 65.22265 -16.58435 24680 ft 420 kts 131°
2026-04-21 23:48 65.20248 -16.53417 25116 ft 420 kts 131°
2026-04-21 23:48 65.18222 -16.48388 25554 ft 421 kts 131°
2026-04-21 23:49 65.16218 -16.43426 25969 ft 422 kts 131°
2026-04-21 23:49 65.14182 -16.38396 26372 ft 423 kts 131°
2026-04-21 23:49 65.12139 -16.33360 26739 ft 424 kts 131°
2026-04-21 23:49 65.10084 -16.28306 27137 ft 425 kts 131°
2026-04-21 23:50 65.08026 -16.23258 27527 ft 426 kts 131°
2026-04-21 23:50 65.05962 -16.18209 27893 ft 427 kts 131°
2026-04-21 23:50 65.03893 -16.13158 28297 ft 428 kts 131°
2026-04-21 23:50 65.01817 -16.08099 28667 ft 428 kts 131°
2026-04-21 23:51 64.99738 -16.03048 29010 ft 429 kts 131°
2026-04-21 23:51 64.98356 -15.99697 29272 ft 429 kts 131°
2026-04-21 23:51 64.95609 -15.93054 30012 ft 424 kts 131°
2026-04-21 23:51 64.93566 -15.88129 30674 ft 418 kts 132°
2026-04-21 23:52 64.91545 -15.83267 31175 ft 413 kts 131°
2026-04-21 23:52 64.89535 -15.78439 31553 ft 412 kts 131°
2026-04-21 23:52 64.87533 -15.73639 31903 ft 411 kts 131°
2026-04-21 23:52 64.85534 -15.68859 32290 ft 408 kts 131°
2026-04-21 23:53 64.83547 -15.64119 32719 ft 405 kts 131°
2026-04-21 23:53 64.82239 -15.61005 32961 ft 404 kts 131°
2026-04-21 23:53 64.79622 -15.54785 33398 ft 403 kts 131°
2026-04-21 23:53 64.77663 -15.50149 33984 ft 397 kts 130°
2026-04-21 23:54 64.75735 -15.45594 34568 ft 391 kts 130°
2026-04-21 23:54 64.73828 -15.41094 34863 ft 390 kts 130°
2026-04-21 23:54 64.71909 -15.36570 34946 ft 394 kts 130°
2026-04-21 23:55 64.68027 -15.27448 35299 ft 396 kts 131°
2026-04-21 23:55 64.66083 -15.22898 35522 ft 396 kts 131°
2026-04-21 23:55 64.64159 -15.18406 35696 ft 397 kts 131°
2026-04-21 23:55 64.62199 -15.13841 35884 ft 399 kts 131°
2026-04-21 23:56 64.60235 -15.09275 36090 ft 399 kts 131°
2026-04-21 23:56 64.58268 -15.04712 36247 ft 400 kts 131°
2026-04-21 23:56 64.56292 -15.00139 36418 ft 401 kts 131°
2026-04-21 23:57 64.52962 -14.92447 36187 ft 410 kts 131°
2026-04-21 23:57 64.50919 -14.87862 35949 ft 406 kts 133°
2026-04-21 23:57 64.48865 -14.83384 35717 ft 406 kts 131°
2026-04-21 23:58 64.44193 -14.72605 35570 ft 411 kts 130°
2026-04-21 23:58 64.40792 -14.64739 35561 ft 414 kts 131°
2026-04-21 23:59 64.36729 -14.55458 35567 ft 413 kts 131°
2026-04-21 23:59 64.32635 -14.46196 35559 ft 412 kts 131°
2026-04-22 00:00 64.28541 -14.36978 35572 ft 411 kts 131°
2026-04-22 00:00 64.24437 -14.27813 35580 ft 411 kts 131°
2026-04-22 00:01 64.20335 -14.18664 35575 ft 411 kts 131°
2026-04-22 00:01 64.16251 -14.09596 35572 ft 411 kts 131°
2026-04-22 00:02 64.12129 -14.00486 35575 ft 412 kts 131°
2026-04-22 00:02 64.08004 -13.91409 35571 ft 412 kts 131°
2026-04-22 00:03 64.03867 -13.82347 35580 ft 412 kts 131°
2026-04-22 00:03 63.99727 -13.73315 35579 ft 412 kts 131°
2026-04-22 00:04 63.95604 -13.64360 35589 ft 412 kts 131°
2026-04-22 00:04 63.91449 -13.55375 35584 ft 412 kts 131°
2026-04-22 00:05 63.87286 -13.46410 35583 ft 413 kts 132°
2026-04-22 00:05 63.83114 -13.37465 35603 ft 413 kts 132°
2026-04-22 00:06 63.78942 -13.28545 35593 ft 412 kts 131°
2026-04-22 00:06 63.74764 -13.19663 35639 ft 412 kts 131°
2026-04-22 00:07 63.70599 -13.10856 35614 ft 413 kts 131°
2026-04-22 00:07 63.66402 -13.02012 35600 ft 413 kts 131°
2026-04-22 00:08 63.62195 -12.93184 35607 ft 413 kts 131°
2026-04-22 00:08 63.57985 -12.84386 35610 ft 413 kts 132°
2026-04-22 00:09 63.53805 -12.75686 35615 ft 413 kts 132°
2026-04-22 00:09 63.49585 -12.66939 35613 ft 413 kts 132°
2026-04-22 00:10 63.45354 -12.58207 35624 ft 414 kts 132°
2026-04-22 00:10 63.41115 -12.49494 35623 ft 414 kts 132°
2026-04-22 00:11 63.36891 -12.40851 35621 ft 415 kts 132°
2026-04-22 00:11 63.32637 -12.32182 35624 ft 415 kts 132°
2026-04-22 00:12 63.28378 -12.23539 35622 ft 415 kts 132°
2026-04-22 00:12 63.24119 -12.14909 35629 ft 414 kts 132°
2026-04-22 00:13 63.19843 -12.06315 35634 ft 415 kts 132°
2026-04-22 00:13 63.15588 -11.97794 35631 ft 416 kts 132°
2026-04-22 00:14 63.11290 -11.89219 35639 ft 416 kts 132°
2026-04-22 00:14 63.06989 -11.80672 35638 ft 416 kts 132°
2026-04-22 00:15 63.02684 -11.72151 35639 ft 416 kts 132°
2026-04-22 00:15 62.98399 -11.63705 35642 ft 416 kts 132°
2026-04-22 00:16 62.94080 -11.55225 35653 ft 418 kts 132°
2026-04-22 00:16 62.89732 -11.46721 35648 ft 419 kts 132°
2026-04-22 00:17 62.85364 -11.38217 35642 ft 420 kts 133°
2026-04-22 00:17 62.80984 -11.29725 35640 ft 421 kts 133°
2026-04-22 00:18 62.76621 -11.21303 35646 ft 421 kts 133°
2026-04-22 00:18 62.72244 -11.12865 35637 ft 418 kts 132°
2026-04-22 00:19 62.67876 -11.04514 35667 ft 420 kts 133°
2026-04-22 00:19 62.63463 -10.96100 35653 ft 424 kts 133°
2026-04-22 00:20 62.59044 -10.87705 35649 ft 426 kts 133°
2026-04-22 00:20 62.54579 -10.79264 35641 ft 425 kts 133°
2026-04-22 00:21 62.50126 -10.70880 35652 ft 424 kts 133°
2026-04-22 00:21 62.45671 -10.62522 35649 ft 424 kts 133°
2026-04-22 00:22 62.41205 -10.54175 35663 ft 426 kts 133°
2026-04-22 00:22 62.36735 -10.45855 35658 ft 429 kts 134°
2026-04-22 00:23 62.32198 -10.37446 35653 ft 431 kts 134°
2026-04-22 00:23 62.27638 -10.29033 35647 ft 433 kts 134°
2026-04-22 00:24 62.23093 -10.20682 35650 ft 433 kts 133°
2026-04-22 00:24 62.18545 -10.12341 35644 ft 429 kts 133°
2026-04-22 00:25 62.14002 -10.04072 35656 ft 431 kts 134°
2026-04-22 00:25 62.09418 -9.95753 35655 ft 434 kts 134°
2026-04-22 00:26 62.04799 -9.87402 35656 ft 436 kts 134°
2026-04-22 00:26 62.00189 -9.79104 35652 ft 438 kts 134°
2026-04-22 00:27 61.95538 -9.70767 35644 ft 437 kts 134°
2026-04-22 00:27 61.90889 -9.62469 35647 ft 436 kts 134°
2026-04-22 00:28 61.86231 -9.54183 35652 ft 439 kts 135°
2026-04-22 00:28 61.81528 -9.45850 35651 ft 442 kts 135°
2026-04-22 00:29 61.76801 -9.37514 35652 ft 444 kts 135°
2026-04-22 00:29 61.72159 -9.29376 35627 ft 423 kts 135°
2026-04-22 00:29 61.69929 -9.25489 35629 ft 408 kts 134°
2026-04-22 00:30 61.67781 -9.21740 35634 ft 394 kts 134°
2026-04-22 00:30 61.65700 -9.18119 35629 ft 381 kts 134°
2026-04-22 00:30 61.63690 -9.14626 35633 ft 368 kts 134°
2026-04-22 00:30 61.61751 -9.11257 35655 ft 355 kts 134°
2026-04-22 00:31 61.59863 -9.07978 35651 ft 351 kts 134°
2026-04-22 00:31 61.56077 -9.01388 35669 ft 362 kts 134°
2026-04-22 00:32 61.52264 -8.94805 35637 ft 345 kts 134°
2026-04-22 00:32 61.48518 -8.88352 35663 ft 355 kts 134°
2026-04-22 00:33 61.44628 -8.81663 35664 ft 368 kts 135°
2026-04-22 00:33 61.40661 -8.74884 35656 ft 372 kts 135°
2026-04-22 00:34 61.36691 -8.68126 35626 ft 361 kts 134°
2026-04-22 00:34 61.32896 -8.61656 35621 ft 344 kts 134°
2026-04-22 00:35 61.29279 -8.55545 35612 ft 326 kts 134°
2026-04-22 00:35 61.25809 -8.49882 35598 ft 313 kts 144°
2026-04-22 00:35 61.23725 -8.48288 35309 ft 341 kts 162°
2026-04-22 00:36 61.21257 -8.47664 34810 ft 373 kts 169°
2026-04-22 00:36 61.18579 -8.47591 34535 ft 397 kts 178°
2026-04-22 00:36 61.15801 -8.48718 34521 ft 418 kts 194°
2026-04-22 00:36 61.13163 -8.51557 34497 ft 440 kts 213°
2026-04-22 00:37 61.10979 -8.56127 34550 ft 455 kts 233°
2026-04-22 00:37 61.09509 -8.61969 34705 ft 464 kts 251°
2026-04-22 00:37 61.08900 -8.68532 34818 ft 468 kts 270°
2026-04-22 00:37 61.09235 -8.75205 34936 ft 468 kts 289°
2026-04-22 00:38 61.10469 -8.81390 35071 ft 464 kts 305°
2026-04-22 00:38 61.12427 -8.86606 35176 ft 458 kts 323°
2026-04-22 00:38 61.14866 -8.90804 35335 ft 457 kts 326°
2026-04-22 00:38 61.17351 -8.94972 35442 ft 462 kts 326°
2026-04-22 00:39 61.19849 -8.99223 35559 ft 467 kts 325°
2026-04-22 00:39 61.24878 -9.07992 35650 ft 478 kts 324°
2026-04-22 00:39 61.27509 -9.12238 35624 ft 478 kts 335°
2026-04-22 00:40 61.30524 -9.14657 35660 ft 456 kts 356°
2026-04-22 00:40 61.33600 -9.14668 35638 ft 433 kts 18°
2026-04-22 00:40 61.36363 -9.12754 35670 ft 420 kts 31°
2026-04-22 00:40 61.38832 -9.09636 35651 ft 412 kts 42°
2026-04-22 00:41 61.40880 -9.05553 35639 ft 405 kts 54°
2026-04-22 00:41 61.42370 -9.00632 35643 ft 399 kts 68°
2026-04-22 00:41 61.43196 -8.95140 35643 ft 396 kts 81°
2026-04-22 00:41 61.43319 -8.89403 35647 ft 397 kts 94°
2026-04-22 00:42 61.42742 -8.83762 35650 ft 400 kts 107°
2026-04-22 00:42 61.39828 -8.73803 35647 ft 413 kts 132°
2026-04-22 00:43 61.35407 -8.66123 35647 ft 418 kts 136°
2026-04-22 00:43 61.30886 -8.58437 35643 ft 420 kts 135°
2026-04-22 00:44 61.26368 -8.50663 35646 ft 424 kts 138°
2026-04-22 00:44 61.23768 -8.47639 35643 ft 437 kts 156°
2026-04-22 00:44 61.20778 -8.46224 35643 ft 448 kts 169°
2026-04-22 00:44 61.17672 -8.46205 35656 ft 458 kts 181°
2026-04-22 00:45 61.14537 -8.47671 35639 ft 469 kts 196°
2026-04-22 00:45 61.11609 -8.50795 35647 ft 479 kts 212°
2026-04-22 00:45 61.09148 -8.55491 35647 ft 487 kts 229°
2026-04-22 00:45 61.07370 -8.61462 35649 ft 492 kts 246°
2026-04-22 00:46 61.06430 -8.68248 35654 ft 493 kts 263°
2026-04-22 00:46 61.06405 -8.75288 35653 ft 491 kts 281°
2026-04-22 00:46 61.07285 -8.82039 35655 ft 485 kts 297°
2026-04-22 00:46 61.08867 -8.88018 35646 ft 479 kts 311°
2026-04-22 00:47 61.11119 -8.92970 35662 ft 468 kts 325°
2026-04-22 00:47 61.16174 -9.01462 35649 ft 469 kts 326°
2026-04-22 00:48 61.21201 -9.10119 35637 ft 470 kts 324°
2026-04-22 00:48 61.26257 -9.18686 35613 ft 464 kts 335°
2026-04-22 00:48 61.29184 -9.21109 35669 ft 446 kts 355°
2026-04-22 00:49 61.32192 -9.21620 35638 ft 436 kts
2026-04-22 00:49 61.35157 -9.20751 35654 ft 427 kts 20°
2026-04-22 00:49 61.37914 -9.18664 35643 ft 419 kts 32°
2026-04-22 00:49 61.40339 -9.15414 35647 ft 411 kts 44°
2026-04-22 00:50 61.42307 -9.11154 35653 ft 406 kts 57°
2026-04-22 00:50 61.43735 -9.06116 35646 ft 402 kts 68°
2026-04-22 00:50 61.44579 -9.00568 35645 ft 401 kts 80°
2026-04-22 00:50 61.44815 -8.94771 35644 ft 401 kts 91°
2026-04-22 00:51 61.44442 -8.89080 35640 ft 404 kts 103°
2026-04-22 00:51 61.42034 -8.78427 35634 ft 413 kts 123°
2026-04-22 00:51 61.40051 -8.74041 35656 ft 420 kts 135°
2026-04-22 00:52 61.37790 -8.70151 35643 ft 421 kts 136°
2026-04-22 00:52 61.33232 -8.62459 35642 ft 422 kts 136°
2026-04-22 00:53 61.28712 -8.54677 35645 ft 422 kts 135°
2026-04-22 00:53 61.23905 -8.47769 35641 ft 435 kts 155°
2026-04-22 00:53 61.20939 -8.46276 35644 ft 445 kts 168°
2026-04-22 00:54 61.17817 -8.46173 35654 ft 455 kts 181°
2026-04-22 00:54 61.14691 -8.47545 35638 ft 465 kts 195°
2026-04-22 00:54 61.11768 -8.50541 35643 ft 475 kts 211°
2026-04-22 00:54 61.09285 -8.55097 35645 ft 483 kts 228°
2026-04-22 00:55 61.07457 -8.60943 35647 ft 488 kts 245°
2026-04-22 00:55 61.06446 -8.67623 35649 ft 489 kts 262°
2026-04-22 00:55 61.07110 -8.81367 35651 ft 482 kts 295°
2026-04-22 00:56 61.08631 -8.87485 35644 ft 476 kts 309°
2026-04-22 00:56 61.10763 -8.92491 35650 ft 466 kts 324°
2026-04-22 00:56 61.15787 -9.00964 35645 ft 467 kts 326°
2026-04-22 00:57 61.20804 -9.09580 35629 ft 470 kts 325°
2026-04-22 00:57 61.25834 -9.18234 35627 ft 467 kts 332°
2026-04-22 00:58 61.28719 -9.20969 35655 ft 449 kts 353°
2026-04-22 00:58 61.31737 -9.21704 35641 ft 438 kts
2026-04-22 00:58 61.34726 -9.21014 35655 ft 429 kts 18°
2026-04-22 00:58 61.37536 -9.19083 35640 ft 422 kts 30°
2026-04-22 00:59 61.40022 -9.15970 35647 ft 414 kts 43°
2026-04-22 00:59 61.42066 -9.11809 35651 ft 408 kts 55°
2026-04-22 00:59 61.43574 -9.06835 35650 ft 405 kts 67°
2026-04-22 00:59 61.44499 -9.01311 35643 ft 403 kts 78°
2026-04-22 01:00 61.44812 -8.95507 35640 ft 403 kts 90°
2026-04-22 01:00 61.44505 -8.89696 35643 ft 405 kts 102°
2026-04-22 01:00 61.42227 -8.78996 35638 ft 414 kts 122°
2026-04-22 01:01 61.40298 -8.74485 35651 ft 421 kts 134°
2026-04-22 01:01 61.38052 -8.70598 35645 ft 423 kts 136°
2026-04-22 01:01 61.33468 -8.62866 35639 ft 423 kts 136°
2026-04-22 01:02 61.28944 -8.55079 35638 ft 422 kts 135°
2026-04-22 01:02 61.24162 -8.47959 35620 ft 434 kts 153°
2026-04-22 01:03 61.21221 -8.46343 35648 ft 444 kts 167°
2026-04-22 01:03 61.18149 -8.46111 35651 ft 453 kts 179°
2026-04-22 01:03 61.15023 -8.47310 35637 ft 463 kts 193°
2026-04-22 01:03 61.12066 -8.50118 35641 ft 473 kts 209°
2026-04-22 01:04 61.09521 -8.54500 35642 ft 481 kts 226°
2026-04-22 01:04 61.07610 -8.60200 35645 ft 487 kts 243°
2026-04-22 01:04 61.06494 -8.66810 35650 ft 489 kts 259°
2026-04-22 01:04 61.06267 -8.73780 35651 ft 487 kts 277°
2026-04-22 01:05 61.06924 -8.80499 35648 ft 483 kts 293°
2026-04-22 01:05 61.08374 -8.86789 35649 ft 477 kts 307°
2026-04-22 01:05 61.10460 -8.92026 35646 ft 468 kts 323°
2026-04-22 01:05 61.12945 -8.96302 35651 ft 466 kts 326°
2026-04-22 01:06 61.17984 -9.04796 35637 ft 469 kts 326°
2026-04-22 01:06 61.22957 -9.13455 35637 ft 471 kts 324°
2026-04-22 01:07 61.28316 -9.20787 35643 ft 452 kts 351°
2026-04-22 01:07 61.31371 -9.21736 35642 ft 440 kts
2026-04-22 01:07 61.34462 -9.21163 35657 ft 431 kts 18°
2026-04-22 01:08 61.37287 -9.19339 35639 ft 423 kts 29°
2026-04-22 01:08 61.39809 -9.16319 35648 ft 415 kts 41°
2026-04-22 01:08 61.41896 -9.12238 35653 ft 409 kts 54°
2026-04-22 01:08 61.43454 -9.07323 35650 ft 405 kts 66°
2026-04-22 01:09 61.44431 -9.01841 35640 ft 403 kts 77°
2026-04-22 01:09 61.44801 -8.96048 35637 ft 403 kts 89°
2026-04-22 01:09 61.44551 -8.90219 35636 ft 405 kts 101°
2026-04-22 01:09 61.43685 -8.84602 35642 ft 408 kts 111°
2026-04-22 01:10 61.40453 -8.74783 35646 ft 420 kts 133°
2026-04-22 01:10 61.35919 -8.67011 35638 ft 422 kts 136°
2026-04-22 01:11 61.31371 -8.59268 35637 ft 422 kts 135°
2026-04-22 01:11 61.26855 -8.51474 35638 ft 422 kts 136°
2026-04-22 01:12 61.24373 -8.48148 35617 ft 432 kts 152°
2026-04-22 01:12 61.21456 -8.46422 35651 ft 442 kts 166°
2026-04-22 01:12 61.18351 -8.46085 35649 ft 452 kts 178°
2026-04-22 01:12 61.15223 -8.47177 35635 ft 462 kts 192°
2026-04-22 01:13 61.12250 -8.49866 35639 ft 472 kts 208°
2026-04-22 01:13 61.09671 -8.54133 35639 ft 481 kts 224°
2026-04-22 01:13 61.07707 -8.59750 35643 ft 486 kts 241°
2026-04-22 01:13 61.06538 -8.66209 35648 ft 489 kts 258°
2026-04-22 01:14 61.06229 -8.73151 35650 ft 488 kts 275°
2026-04-22 01:14 61.06819 -8.80004 35649 ft 484 kts 292°
2026-04-22 01:14 61.08195 -8.86281 35654 ft 478 kts 306°
2026-04-22 01:14 61.10210 -8.91607 35638 ft 469 kts 322°
2026-04-22 01:15 61.15208 -9.00164 35643 ft 467 kts 326°
2026-04-22 01:15 61.20541 -9.07537 35624 ft 452 kts 350°
2026-04-22 01:16 61.23563 -9.08355 35648 ft 440 kts 10°
2026-04-22 01:16 61.26516 -9.07066 35670 ft 432 kts 25°
2026-04-22 01:16 61.29237 -9.04445 35641 ft 430 kts 36°
2026-04-22 01:16 61.31617 -9.00741 35640 ft 428 kts 48°
2026-04-22 01:17 61.33497 -8.95982 35641 ft 425 kts 61°
2026-04-22 01:17 61.34708 -8.90376 35641 ft 425 kts 75°
2026-04-22 01:17 61.35158 -8.84310 35642 ft 426 kts 89°
2026-04-22 01:17 61.34831 -8.78155 35639 ft 430 kts 103°
2026-04-22 01:18 61.33803 -8.72366 35649 ft 435 kts 114°
2026-04-22 01:18 61.32135 -8.67107 35621 ft 440 kts 128°
2026-04-22 01:18 61.27636 -8.58407 35644 ft 443 kts 134°
2026-04-22 01:19 61.23037 -8.49891 35631 ft 443 kts 133°
2026-04-22 01:19 61.18472 -8.41332 35635 ft 442 kts 133°
2026-04-22 01:20 61.13953 -8.32809 35644 ft 442 kts 133°
2026-04-22 01:20 61.09408 -8.24265 35637 ft 442 kts 133°
2026-04-22 01:21 61.04837 -8.15714 35656 ft 445 kts 134°
2026-04-22 01:21 61.00025 -8.07561 35638 ft 454 kts 144°
2026-04-22 01:22 60.94194 -8.02242 35652 ft 465 kts 156°
2026-04-22 01:22 60.88109 -7.97973 35638 ft 466 kts 156°
2026-04-22 01:23 60.82007 -7.93512 35640 ft 466 kts 155°
2026-04-22 01:23 60.75928 -7.88894 35648 ft 466 kts 154°
2026-04-22 01:24 60.69934 -7.83805 35642 ft 467 kts 153°
2026-04-22 01:24 60.63950 -7.78643 35639 ft 467 kts 153°
2026-04-22 01:25 60.57989 -7.73572 35640 ft 468 kts 153°
2026-04-22 01:25 60.51973 -7.68517 35658 ft 468 kts 153°
2026-04-22 01:26 60.45941 -7.63485 35646 ft 469 kts 153°
2026-04-22 01:26 60.39907 -7.58471 35638 ft 470 kts 154°
2026-04-22 01:27 60.33987 -7.53579 35628 ft 457 kts 153°
2026-04-22 01:27 60.31076 -7.51181 35611 ft 445 kts 153°
2026-04-22 01:27 60.28253 -7.48863 35620 ft 431 kts 153°
2026-04-22 01:28 60.22744 -7.44334 35658 ft 427 kts 153°
2026-04-22 01:28 60.17201 -7.39778 35648 ft 433 kts 154°
2026-04-22 01:29 60.11652 -7.35245 35631 ft 433 kts 154°
2026-04-22 01:29 60.06078 -7.30715 35629 ft 432 kts 154°
2026-04-22 01:30 60.00516 -7.26213 35629 ft 430 kts 154°
2026-04-22 01:30 59.94974 -7.21741 35640 ft 430 kts 154°
2026-04-22 01:31 59.89464 -7.17310 35634 ft 430 kts 154°
2026-04-22 01:31 59.83914 -7.12863 35626 ft 430 kts 154°
2026-04-22 01:32 59.78359 -7.08429 35624 ft 431 kts 154°
2026-04-22 01:32 59.72790 -7.03999 35620 ft 432 kts 154°
2026-04-22 01:33 59.67246 -6.99605 35631 ft 433 kts 155°
2026-04-22 01:33 59.61646 -6.95183 35625 ft 434 kts 155°
2026-04-22 01:34 59.56032 -6.90765 35621 ft 435 kts 155°
2026-04-22 01:34 59.50403 -6.86353 35618 ft 436 kts 155°
2026-04-22 01:35 59.44778 -6.81959 35615 ft 436 kts 155°
2026-04-22 01:35 59.39179 -6.77600 35623 ft 436 kts 155°
2026-04-22 01:36 59.33531 -6.73220 35609 ft 436 kts 155°
2026-04-22 01:36 59.27889 -6.68860 35610 ft 436 kts 155°
2026-04-22 01:37 59.22256 -6.64522 35614 ft 435 kts 156°
2026-04-22 01:37 59.16663 -6.60230 35605 ft 435 kts 156°
2026-04-22 01:38 59.11038 -6.55928 35612 ft 434 kts 156°
2026-04-22 01:38 59.05415 -6.51645 35602 ft 434 kts 156°
2026-04-22 01:39 58.99834 -6.47407 35604 ft 433 kts 156°
2026-04-22 01:39 58.94217 -6.43156 35599 ft 433 kts 156°
2026-04-22 01:40 58.88595 -6.38918 35599 ft 433 kts 156°
2026-04-22 01:40 58.82974 -6.34694 35602 ft 434 kts 156°
2026-04-22 01:41 58.77346 -6.30479 35601 ft 434 kts 156°
2026-04-22 01:41 58.71747 -6.26302 35596 ft 435 kts 157°
2026-04-22 01:42 58.66106 -6.22108 35592 ft 435 kts 157°
2026-04-22 01:42 58.60462 -6.17926 35593 ft 435 kts 156°
2026-04-22 01:43 58.54811 -6.13753 35591 ft 435 kts 156°
2026-04-22 01:43 58.49193 -6.09619 35589 ft 436 kts 157°
2026-04-22 01:44 58.43535 -6.05470 35588 ft 436 kts 157°
2026-04-22 01:44 58.37878 -6.01336 35588 ft 436 kts 157°
2026-04-22 01:45 58.32217 -5.97213 35597 ft 435 kts 157°
2026-04-22 01:45 58.26590 -5.93129 35590 ft 436 kts 158°
2026-04-22 01:46 58.20932 -5.89036 35583 ft 435 kts 158°
2026-04-22 01:46 58.15269 -5.84954 35581 ft 435 kts 158°
2026-04-22 01:47 58.09610 -5.80889 35577 ft 435 kts 158°
2026-04-22 01:47 58.03996 -5.76868 35578 ft 435 kts 158°
2026-04-22 01:48 57.98340 -5.72833 35566 ft 434 kts 158°
2026-04-22 01:48 57.92686 -5.68813 35567 ft 434 kts 158°
2026-04-22 01:49 57.87029 -5.64803 35563 ft 434 kts 158°
2026-04-22 01:49 57.81378 -5.60810 35572 ft 434 kts 158°
2026-04-22 01:50 57.75769 -5.56858 35568 ft 434 kts 159°
2026-04-22 01:50 57.70109 -5.52889 35566 ft 434 kts 159°
2026-04-22 01:51 57.64458 -5.48938 35567 ft 434 kts 159°
2026-04-22 01:51 57.58791 -5.44988 35562 ft 435 kts 159°
2026-04-22 01:52 57.53127 -5.41054 35566 ft 435 kts 159°
2026-04-22 01:52 57.47494 -5.37153 35562 ft 435 kts 159°
2026-04-22 01:53 57.41821 -5.33238 35567 ft 435 kts 159°
2026-04-22 01:53 57.36151 -5.29338 35563 ft 435 kts 159°
2026-04-22 01:54 57.30474 -5.25446 35562 ft 435 kts 159°
2026-04-22 01:54 57.24802 -5.21570 35572 ft 435 kts 159°
2026-04-22 01:55 57.20084 -5.18356 35573 ft 435 kts 159°
2026-04-22 01:55 57.13480 -5.13872 35567 ft 435 kts 159°
2026-04-22 01:56 57.07796 -5.10026 35565 ft 436 kts 159°
2026-04-22 01:56 57.03052 -5.06826 35571 ft 435 kts 160°
2026-04-22 01:57 56.97320 -5.02971 35561 ft 436 kts 160°
2026-04-22 01:57 56.91668 -4.99181 35557 ft 436 kts 160°
2026-04-22 01:58 56.85972 -4.95375 35563 ft 436 kts 160°
2026-04-22 01:58 56.80277 -4.91582 35561 ft 436 kts 160°
2026-04-22 01:59 56.74578 -4.87799 35555 ft 436 kts 160°
2026-04-22 01:59 56.68885 -4.84031 35555 ft 435 kts 161°
2026-04-22 02:00 56.63232 -4.80303 35569 ft 435 kts 161°
2026-04-22 02:00 56.57537 -4.76558 35570 ft 435 kts 161°
2026-04-22 02:01 56.51847 -4.72828 35568 ft 435 kts 161°
2026-04-22 02:01 56.46144 -4.69102 35553 ft 436 kts 161°
2026-04-22 02:02 56.40478 -4.65413 35555 ft 436 kts 161°
2026-04-22 02:02 56.34772 -4.61709 35555 ft 436 kts 161°
2026-04-22 02:03 56.29064 -4.58016 35567 ft 436 kts 161°
2026-04-22 02:03 56.23355 -4.54333 35564 ft 436 kts 161°
2026-04-22 02:04 56.14772 -4.48817 35540 ft 437 kts 162°
2026-04-22 02:05 56.09057 -4.45159 35549 ft 437 kts 161°
2026-04-22 02:05 56.03360 -4.41524 35540 ft 438 kts 161°
2026-04-22 02:06 55.97622 -4.37876 35540 ft 438 kts 162°
2026-04-22 02:06 55.91871 -4.34230 35538 ft 439 kts 162°
2026-04-22 02:07 55.86116 -4.30591 35536 ft 439 kts 161°
2026-04-22 02:07 55.80399 -4.26989 35534 ft 439 kts 162°
2026-04-22 02:08 55.74639 -4.23372 35532 ft 439 kts 162°
2026-04-22 02:08 55.68890 -4.19773 35526 ft 439 kts 162°
2026-04-22 02:09 55.63127 -4.16172 35536 ft 439 kts 162°
2026-04-22 02:09 55.57367 -4.12585 35521 ft 439 kts 162°
2026-04-22 02:10 55.51634 -4.09028 35519 ft 440 kts 162°
2026-04-22 02:10 55.46042 -4.04641 35538 ft 442 kts 152°
2026-04-22 02:11 55.40698 -3.99262 35519 ft 443 kts 152°
2026-04-22 02:11 55.35322 -3.93956 35514 ft 443 kts 153°
2026-04-22 02:12 55.29921 -3.88734 35514 ft 443 kts 153°
2026-04-22 02:12 55.24546 -3.83562 35505 ft 433 kts 153°
2026-04-22 02:13 55.19396 -3.78622 35465 ft 413 kts 153°
2026-04-22 02:13 55.16899 -3.76231 35242 ft 407 kts 153°
2026-04-22 02:13 55.14396 -3.73840 34587 ft 414 kts 153°
2026-04-22 02:13 55.11860 -3.71420 34028 ft 415 kts 153°
2026-04-22 02:14 55.09315 -3.68993 33389 ft 417 kts 153°
2026-04-22 02:14 55.06765 -3.66563 32840 ft 418 kts 153°
2026-04-22 02:14 55.04298 -3.64213 32324 ft 418 kts 154°
2026-04-22 02:22 55.03693 -3.63636 32194 ft 418 kts 154°
2026-04-22 02:22 55.01136 -3.61207 31661 ft 419 kts 154°
2026-04-22 02:23 54.98570 -3.58775 31147 ft 421 kts 154°
2026-04-22 02:23 54.95992 -3.56341 30628 ft 422 kts 154°
2026-04-22 02:23 54.93433 -3.53939 29988 ft 425 kts 155°
2026-04-22 02:23 54.90830 -3.51502 29414 ft 426 kts 155°
2026-04-22 02:24 54.88227 -3.49065 28939 ft 424 kts 154°
2026-04-22 02:24 54.85644 -3.46647 28500 ft 421 kts 154°
2026-04-22 02:24 54.83073 -3.44242 28084 ft 418 kts 154°
2026-04-22 02:24 54.80526 -3.41861 27643 ft 415 kts 154°
2026-04-22 02:25 54.77994 -3.39497 27224 ft 411 kts 154°
2026-04-22 02:25 54.75484 -3.37159 26814 ft 408 kts 154°
2026-04-22 02:25 54.72991 -3.34843 26400 ft 405 kts 153°
2026-04-22 02:25 54.70489 -3.32659 25994 ft 401 kts 157°
2026-04-22 02:26 54.67984 -3.30727 25600 ft 398 kts 159°
2026-04-22 02:26 54.65446 -3.28865 25218 ft 395 kts 159°
2026-04-22 02:26 54.62928 -3.27034 24834 ft 392 kts 159°
2026-04-22 02:26 54.60429 -3.25207 24450 ft 389 kts 158°
2026-04-22 02:27 54.57953 -3.23380 24067 ft 386 kts 158°
2026-04-22 02:27 54.55498 -3.21559 23644 ft 382 kts 157°
2026-04-22 02:27 54.53068 -3.19752 23199 ft 377 kts 156°
2026-04-22 02:27 54.50696 -3.17975 22729 ft 366 kts 156°
2026-04-22 02:28 54.48432 -3.16279 22323 ft 355 kts 156°
2026-04-22 02:28 54.46201 -3.14614 21908 ft 344 kts 156°
2026-04-22 02:28 54.44031 -3.12997 21524 ft 337 kts 157°
2026-04-22 02:28 54.41887 -3.11403 21187 ft 335 kts 157°
2026-04-22 02:29 54.39751 -3.09818 20818 ft 333 kts 157°
2026-04-22 02:29 54.37630 -3.08245 20478 ft 331 kts 156°
2026-04-22 02:29 54.35523 -3.06684 20125 ft 330 kts 156°
2026-04-22 02:29 54.33422 -3.05129 19782 ft 328 kts 156°
2026-04-22 02:30 54.31334 -3.03585 19445 ft 326 kts 156°
2026-04-22 02:30 54.29259 -3.02052 19096 ft 324 kts 156°
2026-04-22 02:30 54.27195 -3.00529 18762 ft 322 kts 156°
2026-04-22 02:30 54.25143 -2.99018 18385 ft 320 kts 156°
2026-04-22 02:31 54.23084 -2.97579 17993 ft 319 kts 160°
2026-04-22 02:31 54.20972 -2.96450 17625 ft 318 kts 163°
2026-04-22 02:31 54.18847 -2.95437 17256 ft 316 kts 163°
2026-04-22 02:31 54.16764 -2.94467 16923 ft 313 kts 163°
2026-04-22 02:32 54.14670 -2.93488 16582 ft 311 kts 163°
2026-04-22 02:32 54.12590 -2.92504 16248 ft 309 kts 162°
2026-04-22 02:32 54.10529 -2.91521 15906 ft 307 kts 162°
2026-04-22 02:32 54.08480 -2.90537 15581 ft 304 kts 162°
2026-04-22 02:33 54.06457 -2.89561 15299 ft 301 kts 162°
2026-04-22 02:33 54.04457 -2.88594 15038 ft 297 kts 161°
2026-04-22 02:33 54.02479 -2.87636 14768 ft 294 kts 161°
2026-04-22 02:33 54.00522 -2.86688 14493 ft 290 kts 161°
2026-04-22 02:34 53.98615 -2.85766 14214 ft 282 kts 161°
2026-04-22 02:34 53.96759 -2.84867 13924 ft 280 kts 161°
2026-04-22 02:34 53.94895 -2.83964 13635 ft 277 kts 161°
2026-04-22 02:34 53.93047 -2.83070 13340 ft 275 kts 161°
2026-04-22 02:35 53.91207 -2.82180 13043 ft 274 kts 161°
2026-04-22 02:35 53.89381 -2.81298 12755 ft 272 kts 161°
2026-04-22 02:35 53.87566 -2.80422 12470 ft 271 kts 161°
2026-04-22 02:35 53.85761 -2.79551 12191 ft 270 kts 161°
2026-04-22 02:36 53.83960 -2.78683 11924 ft 268 kts 161°
2026-04-22 02:36 53.82172 -2.77822 11670 ft 267 kts 161°
2026-04-22 02:36 53.80415 -2.76977 11420 ft 266 kts 161°
2026-04-22 02:36 53.78635 -2.76122 11169 ft 266 kts 161°
2026-04-22 02:37 53.76861 -2.75270 10924 ft 265 kts 161°
2026-04-22 02:37 53.75082 -2.74416 10680 ft 266 kts 161°
2026-04-22 02:37 53.73308 -2.73566 10442 ft 265 kts 161°
2026-04-22 02:37 53.71543 -2.72721 10179 ft 263 kts 160°
2026-04-22 02:38 53.69798 -2.71887 9917 ft 260 kts 160°
2026-04-22 02:38 53.68080 -2.71066 9653 ft 258 kts 160°
2026-04-22 02:38 53.66361 -2.70245 9384 ft 256 kts 160°
2026-04-22 02:38 53.64658 -2.69433 9114 ft 252 kts 160°
2026-04-22 02:39 53.63000 -2.68645 8834 ft 244 kts 160°
2026-04-22 02:39 53.61380 -2.67874 8583 ft 241 kts 160°
2026-04-22 02:39 53.59771 -2.67107 8319 ft 239 kts 160°
2026-04-22 02:39 53.58194 -2.66358 8050 ft 232 kts 160°
2026-04-22 02:40 53.56659 -2.65630 7797 ft 226 kts 160°
2026-04-22 02:40 53.55186 -2.64932 7580 ft 215 kts 160°
2026-04-22 02:40 53.53761 -2.64256 7357 ft 211 kts 160°
2026-04-22 02:40 53.52382 -2.63601 7134 ft 208 kts 159°
2026-04-22 02:41 53.51002 -2.62945 6920 ft 205 kts 159°
2026-04-22 02:41 53.49638 -2.62299 6717 ft 202 kts 159°
2026-04-22 02:41 53.48293 -2.61662 6519 ft 200 kts 159°
2026-04-22 02:41 53.46962 -2.61031 6320 ft 198 kts 159°
2026-04-22 02:42 53.45638 -2.60405 6144 ft 197 kts 159°
2026-04-22 02:42 53.44325 -2.59783 5968 ft 197 kts 159°
2026-04-22 02:42 53.43005 -2.59159 5814 ft 198 kts 159°
2026-04-22 02:42 53.41678 -2.58532 5637 ft 198 kts 159°
2026-04-22 02:43 53.40348 -2.57904 5480 ft 199 kts 159°
2026-04-22 02:43 53.39012 -2.57274 5319 ft 199 kts 159°
2026-04-22 02:43 53.37679 -2.56646 5142 ft 201 kts 158°
2026-04-22 02:43 53.36350 -2.56021 4978 ft 201 kts 158°
2026-04-22 02:44 53.35015 -2.55392 4800 ft 202 kts 158°
2026-04-22 02:44 53.33663 -2.54756 4644 ft 202 kts 158°
2026-04-22 02:44 53.32304 -2.54114 4518 ft 203 kts 157°
2026-04-22 02:44 53.31000 -2.53316 4470 ft 197 kts 146°
2026-04-22 02:45 53.29955 -2.51916 4385 ft 190 kts 127°
2026-04-22 02:45 53.29211 -2.50178 4466 ft 180 kts 117°
2026-04-22 02:45 53.28660 -2.48222 4307 ft 182 kts 109°
2026-04-22 02:45 53.28412 -2.46331 4316 ft 160 kts 95°
2026-04-22 02:46 53.28462 -2.44452 3626 ft 170 kts 82°
2026-04-22 02:46 53.28799 -2.42516 2972 ft 172 kts 75°
2026-04-22 02:46 53.29212 -2.40790 2685 ft 150 kts 69°
2026-04-22 02:46 53.29701 -2.39284 2164 ft 146 kts 66°
2026-04-22 02:47 53.30229 -2.37918 1795 ft 135 kts 55°
2026-04-22 02:47 53.30883 -2.36810 1532 ft 131 kts 50°
2026-04-22 02:47 53.31497 -2.35628 1199 ft 136 kts 57°
2026-04-22 02:47 53.32040 -2.34308 942 ft 138 kts 57°
2026-04-22 02:48 53.32702 -2.33034 897 ft 155 kts 46°
2026-04-22 02:48 53.33412 -2.31619 585 ft 160 kts 56°
2026-04-22 02:48 53.34077 -2.30178 466 ft 151 kts 52°
2026-04-22 02:48 53.34712 -2.28867 239 ft 141 kts 51°
2026-04-22 02:49 53.35262 -2.27715 237 ft 102 kts 51°
2026-04-22 02:49 53.35450 -2.27342 246 ft 21 kts 50°
2026-04-22 02:49 53.35498 -2.27336 248 ft 6 kts 296°
2026-04-22 02:49 53.35532 -2.27404 246 ft 9 kts 313°
2026-04-22 02:50 53.35585 -2.27481 244 ft 11 kts 326°
2026-04-22 02:50 53.35606 -2.27506 244 ft 0 kts 325°
2026-04-22 02:51 53.35616 -2.27517 244 ft 5 kts 325°
2026-04-22 02:51 53.35634 -2.27538 245 ft 0 kts 325°
2026-04-22 02:52 53.35640 -2.27546 245 ft 3 kts 325°
2026-04-22 02:52 53.35646 -2.27552 245 ft 0 kts 325°
2026-04-22 02:54 53.35647 -2.27554 245 ft 1 kts 325°
2026-04-22 02:55 53.35648 -2.27584 245 ft 9 kts 261°
2026-04-22 02:55 53.35612 -2.27704 241 ft 13 kts 263°
2026-04-22 02:55 53.35681 -2.27756 243 ft 13 kts
2026-04-22 02:55 53.35768 -2.27747 248 ft 13 kts
2026-04-22 02:56 53.35862 -2.27809 253 ft 18 kts 324°
2026-04-22 02:56 53.35976 -2.27883 254 ft 17 kts 330°
2026-04-22 02:56 53.35991 -2.27899 254 ft 4 kts 327°
2026-04-22 02:56 53.36045 -2.27976 254 ft 16 kts 319°
2026-04-22 02:57 53.36116 -2.28081 254 ft 11 kts 317°
2026-04-22 02:57 53.36168 -2.28166 254 ft 10 kts 315°
2026-04-22 02:57 53.36223 -2.28260 254 ft 15 kts 314°
2026-04-22 02:57 53.36308 -2.28410 254 ft 17 kts 313°
2026-04-22 02:58 53.36403 -2.28491 254 ft 16 kts 338°
2026-04-22 02:58 53.36458 -2.28556 254 ft 2 kts 317°
2026-04-22 02:58 53.36461 -2.28561 254 ft 0 kts 317°
2026-04-22 02:58 53.36463 -2.28564 254 ft 1 kts 317°
2026-04-22 02:59 53.36478 -2.28588 254 ft 6 kts 317°
2026-04-22 02:59 53.36518 -2.28651 254 ft 9 kts 317°
2026-04-22 02:59 53.36559 -2.28715 254 ft 7 kts 317°
2026-04-22 02:59 53.36599 -2.28770 254 ft 8 kts 336°
2026-04-22 03:00 53.36643 -2.28733 254 ft 8 kts 83°
2026-04-22 03:00 53.36609 -2.28679 254 ft 2 kts 133°
2026-04-22 03:00 53.36599 -2.28661 254 ft 2 kts 133°
2026-04-22 03:00 53.36590 -2.28646 254 ft 2 kts 135°
2026-04-22 03:01 53.36587 -2.28642 254 ft 0 kts 135°
2026-04-22 03:12 53.36628 -2.28695 254 ft 9 kts 175°
2026-04-22 03:13 53.36639 -2.28737 254 ft 8 kts 261°
2026-04-22 03:13 53.36605 -2.28780 254 ft 5 kts 175°
2026-04-22 03:13 53.36532 -2.28681 254 ft 15 kts 127°
2026-04-22 03:13 53.36463 -2.28565 254 ft 15 kts 136°
2026-04-22 03:14 53.36427 -2.28492 254 ft 13 kts 125°
2026-04-22 03:14 53.36396 -2.28372 254 ft 15 kts 131°
2026-04-22 03:14 53.36336 -2.28270 254 ft 8 kts 134°
2026-04-22 03:14 53.36300 -2.28203 254 ft 8 kts 131°
2026-04-22 03:15 53.36258 -2.28150 254 ft 8 kts 160°
2026-04-22 03:15 53.36214 -2.28137 254 ft 8 kts 212°
2026-04-22 03:15 53.36197 -2.28213 254 ft 15 kts 292°
2026-04-22 03:15 53.36264 -2.28335 254 ft 15 kts 314°
2026-04-22 03:16 53.36329 -2.28444 254 ft 9 kts 323°
2026-04-22 03:16 53.36392 -2.28477 254 ft 11 kts 336°
2026-04-22 03:16 53.36472 -2.28576 254 ft 9 kts 314°
2026-04-22 03:16 53.36545 -2.28698 254 ft 15 kts 313°
2026-04-22 03:17 53.36590 -2.28813 254 ft 12 kts 298°
2026-04-22 03:17 53.36599 -2.28879 254 ft 8 kts 236°
2026-04-22 03:17 53.36564 -2.28943 254 ft 3 kts 225°
2026-04-22 03:17 53.36564 -2.28944 254 ft 1 kts 225°